[[{"header":{"parameterUnit":"m.s-1","parameterCategory":1,"la1":30.2991,"la2":30.254,"lo1":-89.0895,"lo2":-89.0444,"dy":0.0017,"dx":0.0017,"nx":28,"ny":28,"refTime":"2023-08-07T21:00:00:Z","depth":0,"parameterNumber":2,"parameterNumberName":"U-component_of_WINDS"},"data":[0,0,0,0,0,0,0,0,0,0,0,0,0,0,0,0,0,0,0,0,0,0,0,0,0,0,0,0,0,0,0,0,0,0,0,0,0,0,0,0,0,0,0,0,0,0,0,0,0,0,0,0,0,0,0,0,0,0,1.7818,1.782,0,1.8006,1.8008,1.801,1.8025,1.8023,1.8021,1.8019,1.8217,1.8224,1.8231,0,0,0,0,0,0,0,0,0,0,0,0,0,1.7478,1.7484,1.7818,1.782,1.7823,1.8005,1.8008,1.801,1.8026,1.8023,1.8021,1.8018,1.8215,1.8223,1.8232,0,0,0,0,0,0,0,0,0,0,0,0,0,1.7642,1.7486,1.7817,1.7852,1.7857,1.8005,1.8008,1.8011,1.8026,1.8023,1.802,1.8017,1.8212,1.8223,1.8233,1.8361,0,0,1.8266,1.8271,0,0,0,0,0,0,0,0,1.7633,1.7654,1.7845,1.785,1.7856,1.7989,1.7961,1.8129,1.8027,1.7962,1.8019,1.8016,1.8144,1.816,1.8203,1.837,1.8379,1.8267,1.8274,1.8278,1.8281,0,0,0,0,0,0,0,1.7621,1.7646,1.7892,1.7847,1.7854,1.786,1.788,1.7993,1.8068,1.7968,1.7969,1.7991,1.8147,1.8192,1.8207,1.8382,1.8267,1.8276,1.8283,1.8287,1.8664,1.8668,0,0,0,0,0,0,1.7603,1.7637,1.7886,1.7898,1.7734,1.7869,1.7891,1.7949,1.8067,1.8082,1.7993,1.7991,1.8175,1.8195,1.8214,1.8372,1.8278,1.8288,1.8294,1.8661,1.8665,1.8669,0,0,0,0,0,0,1.7595,1.7625,1.7879,1.7768,1.7801,1.7878,1.7943,1.7955,1.8,1.8086,1.8101,1.8025,1.8174,1.8199,1.8324,1.8379,1.8293,1.8303,1.8657,1.8662,1.8667,1.8687,0,0,0,0,0,0,1.7585,1.7622,1.767,1.7769,1.7806,1.7984,1.7947,1.7961,1.8018,1.8016,1.812,1.8135,1.8173,1.8308,1.8335,1.8392,1.8311,1.8652,1.8659,1.8665,1.8682,1.8692,1.8701,0,0,0,0,0,1.7573,1.7669,1.7672,1.7702,1.7868,1.7987,1.8009,1.8049,1.8022,1.8072,1.8127,1.8131,1.8368,1.8321,1.8351,1.8412,1.8649,1.8657,1.8665,1.8678,1.869,1.8701,0,0,0,0,0,0,1.7577,1.7683,1.7687,1.7818,1.7893,1.7989,1.8053,1.8062,1.8148,1.8143,1.8192,1.8215,1.8338,1.8388,1.8333,1.8542,1.8506,1.852,1.8505,1.8518,1.8528,1.8513,1.832,0,0,0,0,0,1.7592,1.7679,1.7767,1.7874,1.7911,1.7976,1.8029,1.8054,1.8135,1.8167,1.8232,1.8311,1.8404,1.8464,1.8554,1.8689,1.8712,1.8746,1.8756,1.8764,1.8776,1.8851,1.8867,1.8695,1.8695,1.8695,0,0,1.7627,1.7695,1.7747,1.7877,1.7938,1.8027,1.8003,1.8099,1.8166,1.8182,1.8303,1.8354,1.8446,1.8577,1.8638,1.8622,1.8828,1.8774,1.8779,1.8787,1.8861,1.8877,1.8892,1.8701,1.87,1.8699,0,0,1.7734,1.7794,1.789,1.7951,1.8043,1.8085,1.8108,1.8203,1.8237,1.8359,1.8373,1.8455,1.8613,1.8678,1.8731,1.8863,1.887,1.8892,1.8943,1.9016,1.9029,1.9041,1.9089,1.9105,1.8903,1.8903,1.8903,0,1.7765,1.7899,1.7938,1.8033,1.8091,1.8108,1.8205,1.8264,1.8381,1.8421,1.8401,1.86,1.8663,1.8809,1.8841,1.8884,1.8913,1.888,1.9024,1.9036,1.9049,1.9094,1.9112,1.8905,1.8905,1.8905,1.8905,0,1.7932,1.8025,1.8091,1.8202,1.8267,1.8363,1.8419,1.848,1.8499,1.8544,1.8668,1.8745,1.885,1.8887,1.8907,1.9036,1.9023,1.9013,1.8978,1.9066,1.911,1.9127,1.8908,1.8907,1.8907,1.8906,0,0,1.8047,1.8178,1.8202,1.8252,1.8355,1.8429,1.8526,1.8628,1.8679,1.876,1.8844,1.8977,1.8968,1.9029,1.9057,1.9121,1.922,1.9103,1.9106,1.9122,1.9367,1.9374,1.9393,1.9225,1.9229,1.9232,1.9359,0,1.8166,1.8338,1.8376,1.8525,1.8612,1.8629,1.8714,1.8788,1.8832,1.8913,1.8963,1.9057,1.9037,1.9074,1.9138,1.9194,1.927,1.9186,1.9305,1.9308,1.9281,1.9416,1.9424,1.9541,1.9376,1.9379,1.9382,0,1.8328,1.841,1.8566,1.8658,1.8696,1.8771,1.8867,1.8944,1.9028,1.9056,1.9124,1.9145,1.9249,1.9208,1.9352,1.9293,1.9344,1.9379,1.9385,1.9398,1.935,1.9433,1.9579,1.9596,1.9409,1.9407,1.9405,0,1.8395,1.8546,1.8659,1.8702,1.8811,1.8864,1.8912,1.8993,1.9051,1.9136,1.9175,1.9271,1.9324,1.9398,1.9445,1.9411,1.9586,1.9548,1.9613,1.9611,1.9649,1.9646,1.9805,1.9681,1.9681,1.9681,1.968,0,1.8524,1.8619,1.8691,1.876,1.8868,1.8912,1.9018,1.9067,1.9138,1.9219,1.9241,1.9316,1.9374,1.9458,1.9495,1.9609,1.9633,1.9659,1.9668,1.9657,1.9654,1.9691,1.9685,1.9686,1.9685,1.9684,1.9683,0,1.8618,1.867,1.8794,1.8887,1.8913,1.8988,1.9069,1.9138,1.9182,1.9284,1.931,1.9381,1.9481,1.9535,1.9661,1.9686,1.9813,1.9818,1.9784,1.9788,1.9849,1.9842,2.0038,2.0066,1.9923,1.9925,1.9926,0,1.8696,1.877,1.887,1.8925,1.8974,1.9062,1.9121,1.9168,1.9229,1.933,1.9387,1.9487,1.957,1.9729,1.9793,1.9889,1.9896,1.9958,1.9911,1.9897,1.9897,1.9892,1.99,1.9966,1.9968,1.9969,1.997,0,1.883,1.8852,1.8936,1.9029,1.9099,1.9175,1.925,1.9294,1.9353,1.9421,1.9522,1.9586,1.9713,1.9813,1.9914,1.9966,1.9979,1.9984,2.0004,1.9994,1.9971,1.9984,1.9807,1.9979,1.9978,1.9978,1.9977,1.9977,1.892,1.8985,1.9066,1.9159,1.922,1.929,1.9359,1.9412,1.9497,1.9603,1.9626,1.9733,1.9815,1.9952,2.0006,2.0091,2.008,2.0108,2.0116,2.0122,2.0125,1.9957,2.011,2.011,2.011,2.011,2.0109,0,1.9055,1.9107,1.9192,1.9296,1.9369,1.9372,1.9456,1.9517,1.9611,1.9686,1.9766,1.9883,1.998,2.0051,2.015,2.0204,2.0213,2.0229,2.0225,2.0237,2.013,2.0102,2.0221,2.022,2.022,2.022,2.022,2.022,1.9133,1.9245,1.9277,1.942,1.9472,1.9576,1.9623,1.9688,1.9748,1.9877,1.9957,2.0002,2.0076,2.018,2.0269,2.0288,2.0324,2.0339,2.0358,2.0257,2.0245,2.0233,2.0208,2.0347,2.0347,2.0459,2.046,2.0461]},{"header":{"parameterUnit":"m.s-1","parameterCategory":1,"la1":30.2991,"la2":30.254,"lo1":-89.0895,"lo2":-89.0444,"dy":0.0017,"dx":0.0017,"nx":28,"ny":28,"refTime":"2023-08-07T21:00:00:Z","depth":0,"parameterNumber":3,"parameterNumberName":"V-component_of_WINDS"},"data":[0,0,0,0,0,0,0,0,0,0,0,0,0,0,0,0,0,0,0,0,0,0,0,0,0,0,0,0,0,0,0,0,0,0,0,0,0,0,0,0,0,0,0,0,0,0,0,0,0,0,0,0,0,0,0,0,0,0,4.7935,4.7937,0,4.805,4.8051,4.8052,4.8094,4.8094,4.8093,4.8093,4.8204,4.8208,4.8211,0,0,0,0,0,0,0,0,0,0,0,0,0,4.7747,4.775,4.7935,4.7937,4.7938,4.8049,4.8051,4.8052,4.8094,4.8094,4.8093,4.8093,4.8203,4.8207,4.8211,0,0,0,0,0,0,0,0,0,0,0,0,0,4.7841,4.7751,4.7935,4.7972,4.7977,4.8049,4.8051,4.8053,4.8094,4.8094,4.8093,4.8093,4.8202,4.8207,4.8212,4.8253,0,0,4.8227,4.8229,0,0,0,0,0,0,0,0,4.7836,4.7848,4.7965,4.797,4.7975,4.8057,4.8025,4.812,4.8094,4.8049,4.8093,4.8092,4.8155,4.8164,4.8187,4.8258,4.8263,4.8227,4.823,4.8232,4.8234,0,0,0,0,0,0,0,4.7829,4.7844,4.798,4.7967,4.7973,4.7981,4.7994,4.8043,4.8104,4.8053,4.8057,4.807,4.8158,4.8182,4.819,4.8265,4.8227,4.8232,4.8235,4.8237,4.8376,4.8376,0,0,0,0,0,0,4.7817,4.7838,4.7977,4.7984,4.7903,4.7985,4.8,4.8031,4.8104,4.8114,4.807,4.8071,4.8174,4.8184,4.8194,4.8247,4.8232,4.8237,4.824,4.8375,4.8376,4.8377,0,0,0,0,0,0,4.7813,4.7829,4.7972,4.7912,4.7931,4.7989,4.8024,4.8034,4.8058,4.8116,4.8127,4.8084,4.8174,4.8187,4.8238,4.8252,4.8239,4.8244,4.8374,4.8375,4.8376,4.8355,0,0,0,0,0,0,4.7808,4.7828,4.7846,4.7912,4.7934,4.8017,4.8025,4.8036,4.8067,4.807,4.8132,4.8142,4.8174,4.8231,4.8243,4.8258,4.8248,4.8373,4.8375,4.8376,4.8355,4.8355,4.8355,0,0,0,0,0,4.7801,4.7834,4.7846,4.7863,4.7958,4.8018,4.803,4.8068,4.8068,4.8086,4.8123,4.814,4.8248,4.8236,4.825,4.8267,4.8372,4.8374,4.8376,4.8354,4.8355,4.8355,0,0,0,0,0,0,4.7766,4.7843,4.7858,4.7914,4.7959,4.8025,4.8048,4.8067,4.8112,4.8112,4.8156,4.8169,4.8217,4.8247,4.8232,4.831,4.8311,4.8316,4.829,4.8291,4.8291,4.8284,4.8252,0,0,0,0,0,4.7765,4.7809,4.7874,4.7917,4.7939,4.7989,4.8017,4.8042,4.809,4.8109,4.815,4.8194,4.8238,4.8266,4.8309,4.8358,4.8372,4.8377,4.8377,4.8377,4.8381,4.8409,4.8412,4.8382,4.8382,4.8382,0,0,4.7763,4.7811,4.7836,4.7911,4.7949,4.7992,4.8005,4.805,4.8082,4.8115,4.8167,4.8198,4.825,4.8301,4.8325,4.8327,4.8392,4.8379,4.8379,4.8383,4.8411,4.8414,4.8416,4.8383,4.8383,4.8383,0,0,4.7783,4.7823,4.7864,4.7902,4.7959,4.7993,4.8002,4.8065,4.8088,4.8141,4.8166,4.8203,4.8278,4.8314,4.8342,4.8373,4.839,4.8385,4.8388,4.8415,4.8417,4.842,4.8431,4.8435,4.8389,4.8389,4.8389,0,4.7773,4.7841,4.7882,4.7926,4.7957,4.799,4.8031,4.8065,4.8133,4.8153,4.8154,4.8249,4.8286,4.8345,4.8353,4.8374,4.8385,4.838,4.8414,4.8417,4.8419,4.8431,4.8435,4.8388,4.8388,4.8388,4.8388,0,4.7826,4.7872,4.7897,4.7965,4.7999,4.804,4.8086,4.8115,4.8136,4.8169,4.8222,4.8267,4.8321,4.8336,4.8357,4.8398,4.8398,4.8406,4.8408,4.8421,4.8432,4.8437,4.8387,4.8387,4.8387,4.8387,0,0,4.7828,4.7917,4.7926,4.7956,4.8022,4.8057,4.8099,4.8153,4.8177,4.8222,4.8258,4.832,4.8328,4.8359,4.8384,4.8407,4.843,4.8413,4.8414,4.8415,4.8478,4.8473,4.8477,4.8441,4.8442,4.8442,4.8474,0,4.7857,4.7936,4.7974,4.8036,4.8079,4.811,4.8146,4.8189,4.822,4.8259,4.8292,4.8336,4.8342,4.8362,4.8386,4.8422,4.8443,4.842,4.8474,4.8475,4.8462,4.8483,4.8478,4.8506,4.8478,4.8479,4.848,0,4.7901,4.7948,4.8015,4.8075,4.8094,4.8127,4.8179,4.8216,4.8265,4.8285,4.832,4.8344,4.8388,4.8385,4.8445,4.8429,4.8453,4.8473,4.8475,4.8483,4.8479,4.8492,4.8515,4.852,4.8487,4.8487,4.8486,0,4.7897,4.7976,4.8027,4.8052,4.8123,4.8145,4.8175,4.8223,4.8253,4.8297,4.8317,4.8365,4.8391,4.8427,4.8463,4.8458,4.8519,4.852,4.8537,4.8537,4.855,4.8549,4.8579,4.8563,4.8563,4.8563,4.8563,0,4.7926,4.7966,4.8026,4.8057,4.8102,4.8143,4.8186,4.8218,4.826,4.8297,4.8325,4.8359,4.8403,4.8442,4.8469,4.8515,4.8526,4.8543,4.855,4.8542,4.854,4.8559,4.8559,4.8564,4.8564,4.8564,4.8563,0,4.793,4.7972,4.8029,4.8092,4.8108,4.8139,4.8191,4.8222,4.8253,4.8299,4.8312,4.8361,4.8408,4.8447,4.8507,4.8526,4.8574,4.8581,4.8558,4.8562,4.8578,4.8577,4.8622,4.8631,4.8608,4.8608,4.8608,0,4.7946,4.7978,4.8044,4.8071,4.8102,4.8145,4.8176,4.8217,4.8247,4.8304,4.8328,4.8376,4.8418,4.8491,4.8531,4.8577,4.8587,4.8599,4.8594,4.8584,4.8588,4.8587,4.859,4.86,4.86,4.86,4.86,0,4.7971,4.799,4.8035,4.8086,4.8123,4.8165,4.8207,4.8227,4.8275,4.8308,4.8357,4.8389,4.8452,4.85,4.855,4.8579,4.8598,4.8601,4.8608,4.8601,4.8587,4.8596,4.8561,4.8601,4.8601,4.8601,4.8601,4.8601,4.7982,4.8012,4.8064,4.8112,4.8148,4.8187,4.8219,4.8255,4.8297,4.8353,4.8373,4.8423,4.8469,4.8539,4.8568,4.8607,4.8609,4.8619,4.8621,4.8623,4.8623,4.8579,4.8616,4.8616,4.8616,4.8616,4.8616,0,4.801,4.8044,4.8088,4.8148,4.8185,4.82,4.8248,4.8278,4.8322,4.8364,4.8405,4.8461,4.8507,4.8551,4.8599,4.8621,4.8631,4.8633,4.8632,4.8639,4.8617,4.8608,4.8624,4.8624,4.8624,4.8624,4.8624,4.8624,4.8028,4.808,4.8105,4.8173,4.8207,4.8258,4.8284,4.832,4.8354,4.8416,4.8455,4.8483,4.8526,4.8577,4.862,4.8631,4.8648,4.8648,4.8662,4.8641,4.864,4.8639,4.863,4.8651,4.8651,4.868,4.868,4.8681]}]]